Weather History for KWMC - August, 2013

Change the Weather History Date:

Friday, August 2, 2013

  Actual Average Record
Temperature  
Mean Temperature 65 °F 73 °F  
Max Temperature 86 °F 94 °F 104 °F (1977)
Min Temperature 44 °F 52 °F 39 °F (1964)
Degree Days  
Heating Degree Days 0 0  
Month to date heating degree days 0 0  
Since 1 June heating degree days 70 115  
Since 1 July heating degree days 0 10  
Cooling Degree Days 0 8  
Month to date cooling degree days 4 16  
Year to date cooling degree days 506 349  
Since 1 June cooling degree days 505 338  
Growing Degree Days 15 (Base 50)    
Moisture  
Dew Point 25 °F    
Average Humidity 32    
Maximum Humidity 53    
Minimum Humidity 10    
Precipitation  
Precipitation 0.00 in 0.00 in 0.32 in (1958)
Month to date precipitation 0.00 0.01  
Year to date precipitation 2.26 5.19  
Snow  
Snow 0.00 in 0.00 in 0.00 in (1877)
Month to date snowfall 0.0 0.0  
Since 1 June snowfall T T  
Since 1 July snowfall T 0.0  
Snow Depth 0.00 in    
Sea Level Pressure  
Sea Level Pressure 29.93 in    
Wind  
Wind Speed 5 mph (NNW)    
Max Wind Speed 14 mph    
Max Gust Speed 20 mph    
Visibility 10 miles    
Events      
T = Trace of Precipitation, MM = Missing Value Source: NWS Daily Summary

Daily Weather History Graph

Daily Weather History Graph

Search for Another Location

Airport or City:

Trip Planner

Search our weather history database for the weather conditions in past years. The results will help you decide how hot, cold, wet, or windy it might be!

Date:

Astronomy

Aug. 02, 2013 Rise Set
Actual Time 5:48 AM PDT 8:05 PM PDT
Civil Twilight 5:18 AM PDT 8:36 PM PDT
Nautical Twilight 4:40 AM PDT 9:13 PM PDT
Astronomical Twilight 3:58 AM PDT 9:55 PM PDT
Moon 2:13 AM PDT (8/2) 5:07 PM PDT (8/2)
Length of Visible Light 15h 18m
Length of Day
14h 16m
Waning Crescent, 15% of the Moon is Illuminated
Aug 2
Waning Crescent
Aug 6
New
Aug 14
First Quarter
Aug 20
Full
Aug 28
Last Quarter

Hourly Weather History & Observations

Time (PDT) Temp. Windchill Dew Point Humidity Pressure Visibility Wind Dir Wind Speed Gust Speed Precip Events Conditions
12:56 AM 57.0 °F - 30.0 °F 36% 29.93 in 10.0 mi WNW 4.6 mph - N/A   Clear
1:56 AM 54.0 °F - 30.9 °F 41% 29.94 in 10.0 mi West 9.2 mph - N/A   Clear
2:56 AM 48.9 °F - 30.0 °F 48% 29.96 in 10.0 mi SW 4.6 mph - N/A   Clear
3:56 AM 45.0 °F - 27.0 °F 49% 29.97 in 10.0 mi Calm Calm - N/A   Clear
4:56 AM 45.0 °F 40.1 °F 28.0 °F 52% 29.98 in 10.0 mi SSE 9.2 mph - N/A   Clear
5:56 AM 44.1 °F 39.5 °F 28.0 °F 53% 29.99 in 10.0 mi East 8.1 mph - N/A   Clear
6:56 AM 50.0 °F - 27.0 °F 41% 29.99 in 10.0 mi Calm Calm - N/A   Clear
7:56 AM 57.9 °F - 30.9 °F 36% 29.99 in 10.0 mi Calm Calm - N/A   Clear
8:56 AM 66.9 °F - 37.0 °F 33% 29.99 in 10.0 mi NE 10.4 mph - N/A   Clear
9:56 AM 72.0 °F - 35.1 °F 26% 29.97 in 10.0 mi Variable 4.6 mph - N/A   Clear
10:56 AM 73.9 °F - 32.0 °F 21% 29.97 in 10.0 mi Calm Calm - N/A   Clear
11:56 AM 75.9 °F - 28.0 °F 17% 29.95 in 10.0 mi Calm Calm - N/A   Clear
12:56 PM 80.1 °F - 25.0 °F 13% 29.93 in 10.0 mi North 4.6 mph - N/A   Clear
1:56 PM 82.0 °F - 26.1 °F 13% 29.91 in 10.0 mi West 11.5 mph - N/A   Clear
2:56 PM 81.0 °F - 23.0 °F 12% 29.91 in 10.0 mi Variable 3.5 mph - N/A   Clear
3:56 PM 84.9 °F - 21.9 °F 10% 29.88 in 10.0 mi North 5.8 mph - N/A   Clear
4:56 PM 84.9 °F - 21.9 °F 10% 29.88 in 10.0 mi North 4.6 mph - N/A   Clear
5:56 PM 82.9 °F - 21.0 °F 10% 29.87 in 10.0 mi NNE 8.1 mph - N/A   Clear
6:56 PM 82.9 °F - 19.0 °F 9% 29.86 in 10.0 mi Calm Calm - N/A   Clear
7:56 PM 75.9 °F - 18.0 °F 11% 29.88 in 10.0 mi NW 6.9 mph - N/A   Clear
8:56 PM 68.0 °F - 17.1 °F 14% 29.90 in 10.0 mi NW 6.9 mph - N/A   Clear
9:56 PM 63.0 °F - 16.0 °F 16% 29.91 in 10.0 mi Calm Calm - N/A   Clear
10:56 PM 59.0 °F - 15.1 °F 18% 29.91 in 10.0 mi Calm Calm - N/A   Clear
11:56 PM 55.9 °F - 17.1 °F 22% 29.92 in 10.0 mi NW 4.6 mph - N/A   Clear